TimeCDT,TemperatureF,Dew PointF,Humidity,Sea Level PressureIn,VisibilityMPH,Wind Direction,Wind SpeedMPH,Gust SpeedMPH,PrecipitationIn,Events,Conditions,WindDirDegrees,DateUTC
12:51 AM,57.0,43.0,59,30.19,10.0,North,6.9,-,N/A,,Clear,350,2013-04-20 05:51:00
1:51 AM,57.0,42.1,57,30.18,10.0,North,10.4,18.4,N/A,,Clear,10,2013-04-20 06:51:00
2:51 AM,55.9,43.0,62,30.18,10.0,NNE,11.5,19.6,N/A,,Partly Cloudy,20,2013-04-20 07:51:00
3:51 AM,55.9,41.0,57,30.18,10.0,North,10.4,24.2,N/A,,Clear,10,2013-04-20 08:51:00
4:51 AM,55.9,41.0,57,30.19,10.0,NNE,10.4,19.6,N/A,,Clear,20,2013-04-20 09:51:00
5:51 AM,55.9,41.0,57,30.19,10.0,NNE,12.7,21.9,N/A,,Clear,30,2013-04-20 10:51:00
6:51 AM,55.9,39.0,53,30.20,10.0,NNE,15.0,23.0,N/A,,Clear,30,2013-04-20 11:51:00
7:51 AM,57.0,39.9,53,30.23,10.0,NE,13.8,23.0,N/A,,Clear,40,2013-04-20 12:51:00
8:51 AM,57.9,41.0,53,30.24,10.0,NE,15.0,24.2,N/A,,Clear,50,2013-04-20 13:51:00
9:51 AM,59.0,41.0,51,30.25,10.0,NE,15.0,24.2,N/A,,Clear,50,2013-04-20 14:51:00
10:51 AM,60.1,42.1,51,30.27,10.0,ENE,15.0,25.3,N/A,,Clear,60,2013-04-20 15:51:00
11:51 AM,61.0,42.1,50,30.25,10.0,ENE,15.0,24.2,N/A,,Clear,60,2013-04-20 16:51:00
12:51 PM,62.1,43.0,50,30.23,10.0,ENE,16.1,21.9,N/A,,Clear,60,2013-04-20 17:51:00
1:51 PM,62.1,44.1,52,30.20,10.0,ENE,12.7,-,N/A,,Clear,60,2013-04-20 18:51:00
2:51 PM,62.1,42.1,48,30.18,10.0,ENE,12.7,20.7,N/A,,Clear,60,2013-04-20 19:51:00
3:51 PM,63.0,43.0,48,30.17,10.0,NE,10.4,18.4,N/A,,Clear,50,2013-04-20 20:51:00
4:51 PM,62.1,43.0,50,30.15,10.0,NE,9.2,16.1,N/A,,Clear,50,2013-04-20 21:51:00
5:51 PM,63.0,45.0,52,30.15,10.0,NE,9.2,-,N/A,,Clear,50,2013-04-20 22:51:00
6:51 PM,62.1,44.1,52,30.15,10.0,ENE,8.1,-,N/A,,Clear,70,2013-04-20 23:51:00
7:51 PM,61.0,46.0,58,30.16,10.0,East,6.9,-,N/A,,Clear,80,2013-04-21 00:51:00
8:51 PM,61.0,48.0,62,30.17,10.0,East,5.8,-,N/A,,Clear,80,2013-04-21 01:51:00
9:51 PM,59.0,50.0,72,30.19,10.0,ESE,3.5,-,N/A,,Clear,110,2013-04-21 02:51:00
10:51 PM,60.1,50.0,69,30.19,10.0,East,4.6,-,N/A,,Clear,80,2013-04-21 03:51:00
11:51 PM,62.1,50.0,65,30.18,10.0,ENE,10.4,-,N/A,,Clear,70,2013-04-21 04:51:00